[[{"header":{"parameterUnit":"m.s-1","parameterCategory":1,"la1":30.2991,"la2":30.254,"lo1":-89.0895,"lo2":-89.0444,"dy":0.0017,"dx":0.0017,"nx":28,"ny":28,"refTime":"2025-12-14T03:00:00:Z","depth":0,"parameterNumber":2,"parameterNumberName":"U-component_of_WINDS"},"data":[0,0,0,0,0,0,0,0,0,0,0,0,0,0,0,0,0,0,0,0,0,0,0,0,0,0,0,0,0,0,0,0,0,0,0,0,0,0,0,0,0,0,0,0,0,0,0,0,0,0,0,0,0,0,0,0,0,0,-3.3452,-3.3453,0,-3.354,-3.3541,-3.3542,-3.3463,-3.346,-3.3456,-3.3453,-3.3545,-3.355,-3.3556,0,0,0,0,0,0,0,0,0,0,0,0,0,-3.3214,-3.3219,-3.3452,-3.3453,-3.3454,-3.354,-3.3541,-3.3542,-3.3463,-3.3459,-3.3456,-3.3452,-3.3543,-3.3549,-3.3556,0,0,0,0,0,0,0,0,0,0,0,0,0,-3.3312,-3.3221,-3.3451,-3.3425,-3.3423,-3.3539,-3.3541,-3.3542,-3.3464,-3.3459,-3.3454,-3.345,-3.3541,-3.3549,-3.3557,-3.3704,0,0,-3.3582,-3.3585,0,0,0,0,0,0,0,0,-3.3306,-3.332,-3.3428,-3.3427,-3.3425,-3.3485,-3.3491,-3.3597,-3.3465,-3.3449,-3.3453,-3.3448,-3.3529,-3.3538,-3.3565,-3.3708,-3.3712,-3.3583,-3.3588,-3.3591,-3.3593,0,0,0,0,0,0,0,-3.3299,-3.3316,-3.3486,-3.3429,-3.3428,-3.3408,-3.3417,-3.351,-3.3515,-3.345,-3.3444,-3.3456,-3.3527,-3.3557,-3.3567,-3.3714,-3.3582,-3.359,-3.3595,-3.3598,-3.3981,-3.3986,0,0,0,0,0,0,-3.3295,-3.3311,-3.3484,-3.3489,-3.3353,-3.3416,-3.3426,-3.3471,-3.3514,-3.3516,-3.346,-3.3452,-3.3546,-3.3557,-3.357,-3.3745,-3.3591,-3.3599,-3.3603,-3.3976,-3.3982,-3.3988,0,0,0,0,0,0,-3.3291,-3.3312,-3.348,-3.3399,-3.3418,-3.3426,-3.3477,-3.3475,-3.3505,-3.3521,-3.3522,-3.349,-3.3542,-3.3558,-3.3671,-3.3747,-3.3602,-3.361,-3.397,-3.3978,-3.3985,-3.4096,0,0,0,0,0,0,-3.3284,-3.331,-3.3367,-3.34,-3.3423,-3.3581,-3.3482,-3.3481,-3.3519,-3.351,-3.3549,-3.3551,-3.354,-3.3659,-3.3679,-3.3755,-3.3616,-3.3963,-3.3973,-3.3983,-3.4086,-3.4107,-3.4125,0,0,0,0,0,-3.3276,-3.3395,-3.337,-3.3391,-3.3494,-3.3585,-3.3598,-3.3582,-3.3526,-3.3582,-3.3592,-3.355,-3.3735,-3.3671,-3.3693,-3.3773,-3.3958,-3.397,-3.3982,-3.4077,-3.4103,-3.4125,0,0,0,0,0,0,-3.3371,-3.3399,-3.3372,-3.3505,-3.3543,-3.3572,-3.3643,-3.361,-3.3666,-3.3654,-3.3632,-3.3642,-3.3761,-3.3778,-3.3707,-3.3917,-3.3837,-3.3854,-3.3902,-3.3927,-3.3946,-3.394,-3.3623,0,0,0,0,0,-3.3407,-3.3479,-3.35,-3.3616,-3.3636,-3.3636,-3.3675,-3.366,-3.3698,-3.3714,-3.3733,-3.3772,-3.3839,-3.3883,-3.3946,-3.4087,-3.4094,-3.4152,-3.4172,-3.4188,-3.4204,-3.4279,-3.4305,-3.4027,-3.4027,-3.4027,0,0,-3.3484,-3.3508,-3.3555,-3.3635,-3.3663,-3.3738,-3.3651,-3.3734,-3.3789,-3.3727,-3.3835,-3.3849,-3.3892,-3.402,-3.4077,-3.4037,-3.4281,-3.4203,-3.4216,-3.4223,-3.4294,-3.432,-3.4344,-3.4035,-3.4034,-3.4032,0,0,-3.3661,-3.3687,-3.3786,-3.3815,-3.3857,-3.3856,-3.388,-3.3913,-3.392,-3.4028,-3.3983,-3.4047,-3.4163,-3.4195,-3.4226,-3.4413,-3.4376,-3.4434,-3.4537,-3.4611,-3.4633,-3.4652,-3.4719,-3.4744,-3.4449,-3.4449,-3.4449,0,-3.3751,-3.3862,-3.3841,-3.3927,-3.3964,-3.391,-3.401,-3.4039,-3.41,-3.4126,-3.4081,-3.4224,-3.4248,-3.4383,-3.4428,-3.4455,-3.4481,-3.443,-3.4631,-3.465,-3.4668,-3.4732,-3.4757,-3.4456,-3.4455,-3.4454,-3.4454,0,-3.397,-3.4048,-3.4123,-3.4182,-3.4227,-3.432,-3.4312,-3.436,-3.4339,-3.4343,-3.4452,-3.448,-3.4546,-3.4576,-3.4558,-3.4708,-3.4682,-3.4634,-3.4554,-3.4702,-3.4761,-3.4786,-3.4465,-3.4463,-3.4461,-3.4459,0,0,-3.4213,-3.4258,-3.4286,-3.4312,-3.4354,-3.4413,-3.4503,-3.4567,-3.4609,-3.4651,-3.4726,-3.4824,-3.478,-3.4815,-3.4799,-3.4864,-3.501,-3.4808,-3.4808,-3.4845,-3.5177,-3.5214,-3.5242,-3.4985,-3.4989,-3.4993,-3.5174,0,-3.4393,-3.4549,-3.4531,-3.468,-3.4751,-3.4699,-3.4777,-3.4811,-3.4816,-3.4877,-3.4882,-3.4952,-3.4888,-3.4909,-3.497,-3.4979,-3.5077,-3.4966,-3.5055,-3.5058,-3.5047,-3.5273,-3.5313,-3.5483,-3.5197,-3.5201,-3.5204,0,-3.4624,-3.4675,-3.4831,-3.486,-3.4889,-3.496,-3.5017,-3.5075,-3.5112,-3.5111,-3.515,-3.5122,-3.5211,-3.5127,-3.525,-3.5175,-3.5209,-3.5219,-3.5225,-3.5234,-3.5141,-3.529,-3.5536,-3.5562,-3.524,-3.5237,-3.5234,0,-3.4787,-3.4894,-3.5,-3.5024,-3.5061,-3.5112,-3.513,-3.5161,-3.5201,-3.525,-3.5275,-3.5334,-3.5367,-3.5414,-3.5402,-3.5342,-3.5528,-3.5443,-3.5529,-3.553,-3.5573,-3.5571,-3.583,-3.5593,-3.5593,-3.5592,-3.5592,0,-3.499,-3.5088,-3.5074,-3.514,-3.5247,-3.5225,-3.5332,-3.5343,-3.5371,-3.5438,-3.5396,-3.546,-3.544,-3.5503,-3.5494,-3.5597,-3.5611,-3.5613,-3.561,-3.5618,-3.5618,-3.5642,-3.563,-3.5599,-3.5597,-3.5596,-3.5595,0,-3.5191,-3.5186,-3.5299,-3.5324,-3.5332,-3.541,-3.5431,-3.5493,-3.5494,-3.5579,-3.5597,-3.5599,-3.567,-3.5662,-3.5742,-3.5736,-3.5864,-3.5846,-3.5852,-3.5848,-3.5936,-3.5928,-3.622,-3.6258,-3.5996,-3.5998,-3.6,0,-3.5323,-3.5396,-3.5429,-3.547,-3.5491,-3.5559,-3.5598,-3.5578,-3.5621,-3.5667,-3.5724,-3.5791,-3.5844,-3.5959,-3.5967,-3.6028,-3.6012,-3.611,-3.6021,-3.6026,-3.6014,-3.6011,-3.6018,-3.6128,-3.6131,-3.6134,-3.6136,0,-3.5556,-3.5549,-3.5608,-3.5665,-3.5713,-3.5758,-3.5798,-3.5834,-3.5818,-3.5868,-3.594,-3.5981,-3.6061,-3.6128,-3.6185,-3.6202,-3.6167,-3.6163,-3.6186,-3.6196,-3.6197,-3.6198,-3.5901,-3.6157,-3.6155,-3.6153,-3.6152,-3.6151,-3.5727,-3.579,-3.5822,-3.5888,-3.5916,-3.5954,-3.6013,-3.602,-3.6079,-3.6143,-3.6127,-3.6209,-3.6242,-3.6314,-3.6337,-3.64,-3.6364,-3.6398,-3.6407,-3.6416,-3.6427,-3.6185,-3.641,-3.6409,-3.6409,-3.6408,-3.6408,0,-3.5959,-3.5977,-3.6038,-3.6095,-3.6146,-3.6106,-3.6148,-3.6194,-3.6266,-3.63,-3.6352,-3.6434,-3.6498,-3.651,-3.6571,-3.6619,-3.6604,-3.6636,-3.6633,-3.6638,-3.6455,-3.6429,-3.6647,-3.6647,-3.6647,-3.6647,-3.6647,-3.6647,-3.6086,-3.619,-3.6187,-3.6304,-3.632,-3.6399,-3.6426,-3.6461,-3.6487,-3.6581,-3.6634,-3.6641,-3.6665,-3.6727,-3.6784,-3.6786,-3.6811,-3.685,-3.6845,-3.6675,-3.6651,-3.6628,-3.6604,-3.6855,-3.6855,-3.7023,-3.7024,-3.7026]},{"header":{"parameterUnit":"m.s-1","parameterCategory":1,"la1":30.2991,"la2":30.254,"lo1":-89.0895,"lo2":-89.0444,"dy":0.0017,"dx":0.0017,"nx":28,"ny":28,"refTime":"2025-12-14T03:00:00:Z","depth":0,"parameterNumber":3,"parameterNumberName":"V-component_of_WINDS"},"data":[0,0,0,0,0,0,0,0,0,0,0,0,0,0,0,0,0,0,0,0,0,0,0,0,0,0,0,0,0,0,0,0,0,0,0,0,0,0,0,0,0,0,0,0,0,0,0,0,0,0,0,0,0,0,0,0,0,0,-8.1716,-8.1717,0,-8.1835,-8.1836,-8.1838,-8.1736,-8.1732,-8.1728,-8.1724,-8.184,-8.1847,-8.1854,0,0,0,0,0,0,0,0,0,0,0,0,0,-8.1393,-8.1399,-8.1716,-8.1717,-8.1719,-8.1835,-8.1837,-8.1838,-8.1737,-8.1732,-8.1727,-8.1722,-8.1838,-8.1846,-8.1854,0,0,0,0,0,0,0,0,0,0,0,0,0,-8.1525,-8.1401,-8.1715,-8.1682,-8.1681,-8.1835,-8.1837,-8.1839,-8.1738,-8.1732,-8.1725,-8.1719,-8.1835,-8.1845,-8.1856,-8.2047,0,0,-8.1888,-8.1892,0,0,0,0,0,0,0,0,-8.1517,-8.1536,-8.1686,-8.1685,-8.1683,-8.1764,-8.1765,-8.1908,-8.174,-8.1716,-8.1724,-8.1716,-8.182,-8.1831,-8.1867,-8.2052,-8.2057,-8.1889,-8.1895,-8.1899,-8.1902,0,0,0,0,0,0,0,-8.1508,-8.1531,-8.1763,-8.1688,-8.1687,-8.1659,-8.1671,-8.1792,-8.1801,-8.1718,-8.1711,-8.1726,-8.1818,-8.1857,-8.1869,-8.2059,-8.1888,-8.1898,-8.1904,-8.1908,-8.2403,-8.241,0,0,0,0,0,0,-8.1503,-8.1524,-8.1759,-8.1766,-8.1583,-8.167,-8.1683,-8.1745,-8.18,-8.1802,-8.1732,-8.1721,-8.1842,-8.1857,-8.1873,-8.2098,-8.1899,-8.1909,-8.1915,-8.2396,-8.2405,-8.2412,0,0,0,0,0,0,-8.1497,-8.1525,-8.1754,-8.1643,-8.167,-8.1682,-8.1752,-8.175,-8.179,-8.1811,-8.1811,-8.1771,-8.1838,-8.1858,-8.2004,-8.2101,-8.1914,-8.1924,-8.2388,-8.2399,-8.2408,-8.2552,0,0,0,0,0,0,-8.1488,-8.1524,-8.1598,-8.1646,-8.1677,-8.1886,-8.1758,-8.1757,-8.1809,-8.1796,-8.1847,-8.185,-8.1834,-8.1989,-8.2014,-8.2112,-8.1932,-8.238,-8.2393,-8.2405,-8.2539,-8.2566,-8.259,0,0,0,0,0,-8.1477,-8.1633,-8.1603,-8.1632,-8.1771,-8.1892,-8.1909,-8.189,-8.1817,-8.1891,-8.1904,-8.1848,-8.2086,-8.2005,-8.2032,-8.2135,-8.2373,-8.2389,-8.2404,-8.2528,-8.2561,-8.2589,0,0,0,0,0,0,-8.1595,-8.1639,-8.1605,-8.1782,-8.1835,-8.1875,-8.1967,-8.1927,-8.1999,-8.1984,-8.1955,-8.1967,-8.2121,-8.2142,-8.2051,-8.2321,-8.2218,-8.2239,-8.2302,-8.2334,-8.2359,-8.235,-8.194,0,0,0,0,0,-8.1642,-8.174,-8.1771,-8.1924,-8.1952,-8.1956,-8.2008,-8.1989,-8.204,-8.2061,-8.2085,-8.2136,-8.2221,-8.2279,-8.2359,-8.2541,-8.2549,-8.2625,-8.265,-8.2671,-8.269,-8.2786,-8.2819,-8.2463,-8.2463,-8.2462,0,0,-8.174,-8.1775,-8.1838,-8.1949,-8.1987,-8.2086,-8.1975,-8.2084,-8.2157,-8.2077,-8.2217,-8.2236,-8.229,-8.2455,-8.2529,-8.2477,-8.279,-8.2691,-8.2707,-8.2715,-8.2805,-8.2839,-8.2869,-8.2473,-8.2471,-8.247,0,0,-8.1968,-8.2006,-8.2136,-8.2177,-8.2237,-8.2237,-8.2269,-8.2315,-8.2326,-8.2466,-8.2407,-8.2491,-8.2641,-8.2681,-8.2722,-8.2963,-8.2914,-8.299,-8.3122,-8.3216,-8.3244,-8.3268,-8.3353,-8.3384,-8.3009,-8.3009,-8.3009,0,-8.2081,-8.223,-8.2208,-8.2322,-8.2371,-8.2306,-8.2436,-8.2476,-8.2558,-8.2592,-8.2534,-8.2719,-8.2751,-8.2923,-8.2982,-8.3017,-8.305,-8.2984,-8.3242,-8.3266,-8.3289,-8.3369,-8.3401,-8.3018,-8.3017,-8.3016,-8.3015,0,-8.2365,-8.2469,-8.2567,-8.265,-8.2709,-8.2831,-8.2826,-8.2888,-8.2864,-8.287,-8.3011,-8.3048,-8.3133,-8.3172,-8.3149,-8.3341,-8.3307,-8.3246,-8.3141,-8.3332,-8.3407,-8.3438,-8.3031,-8.3027,-8.3025,-8.3023,0,0,-8.2672,-8.274,-8.2776,-8.2812,-8.2872,-8.2951,-8.3068,-8.3154,-8.3207,-8.3265,-8.3361,-8.3489,-8.3432,-8.3478,-8.3458,-8.354,-8.3727,-8.3468,-8.3469,-8.3514,-8.3938,-8.3983,-8.4019,-8.3695,-8.37,-8.3705,-8.3933,0,-8.2901,-8.3108,-8.3091,-8.3285,-8.3379,-8.3317,-8.3419,-8.3465,-8.3474,-8.3553,-8.3561,-8.3651,-8.3571,-8.3598,-8.3676,-8.3688,-8.3811,-8.3671,-8.3781,-8.3785,-8.3769,-8.4059,-8.4107,-8.4321,-8.3962,-8.3967,-8.3971,0,-8.3197,-8.3267,-8.3471,-8.3516,-8.3554,-8.3647,-8.3722,-8.38,-8.385,-8.385,-8.3901,-8.3866,-8.3981,-8.3875,-8.4031,-8.3936,-8.398,-8.3992,-8.3999,-8.4008,-8.3889,-8.4074,-8.4389,-8.442,-8.4017,-8.4013,-8.401,0,-8.3398,-8.3543,-8.3684,-8.3717,-8.3772,-8.3838,-8.3864,-8.3908,-8.396,-8.4025,-8.4058,-8.4135,-8.4178,-8.4237,-8.4223,-8.4147,-8.4383,-8.4275,-8.4384,-8.4384,-8.4436,-8.4433,-8.4761,-8.4466,-8.4466,-8.4465,-8.4464,0,-8.3656,-8.3783,-8.3775,-8.3862,-8.4001,-8.3979,-8.4117,-8.4134,-8.4174,-8.426,-8.421,-8.4292,-8.4269,-8.4349,-8.4339,-8.4469,-8.4489,-8.449,-8.4485,-8.4494,-8.4494,-8.4522,-8.4506,-8.4473,-8.4472,-8.447,-8.4468,0,-8.3905,-8.3905,-8.4054,-8.4094,-8.4107,-8.4208,-8.4241,-8.4321,-8.4325,-8.4435,-8.4459,-8.4465,-8.4557,-8.4549,-8.4651,-8.4644,-8.4805,-8.4783,-8.4789,-8.4784,-8.4892,-8.4882,-8.5249,-8.5295,-8.4972,-8.4975,-8.4977,0,-8.4069,-8.4165,-8.4216,-8.4272,-8.4302,-8.4392,-8.4445,-8.4426,-8.4482,-8.4546,-8.4618,-8.4705,-8.4774,-8.4922,-8.4934,-8.5011,-8.499,-8.5113,-8.5001,-8.5006,-8.499,-8.4984,-8.4993,-8.5135,-8.5139,-8.5142,-8.5144,0,-8.4359,-8.4354,-8.4434,-8.4513,-8.4578,-8.4639,-8.4694,-8.4742,-8.4728,-8.4793,-8.4887,-8.4941,-8.5045,-8.5132,-8.5205,-8.5228,-8.5184,-8.5179,-8.5208,-8.5218,-8.5217,-8.5217,-8.4848,-8.5171,-8.5168,-8.5166,-8.5165,-8.5164,-8.457,-8.4652,-8.4701,-8.479,-8.483,-8.4882,-8.4959,-8.4973,-8.5052,-8.5137,-8.512,-8.5225,-8.527,-8.5364,-8.5394,-8.5474,-8.5429,-8.5472,-8.5482,-8.5493,-8.5505,-8.5205,-8.5487,-8.5486,-8.5486,-8.5485,-8.5485,0,-8.4857,-8.4885,-8.4967,-8.5047,-8.5117,-8.507,-8.5129,-8.5189,-8.5283,-8.533,-8.5399,-8.5505,-8.5588,-8.5606,-8.5685,-8.5745,-8.5726,-8.5766,-8.5761,-8.5767,-8.5541,-8.5508,-8.578,-8.578,-8.578,-8.578,-8.578,-8.578,-8.5014,-8.515,-8.5151,-8.5305,-8.5331,-8.5435,-8.5472,-8.5519,-8.5556,-8.5678,-8.5748,-8.576,-8.5794,-8.5875,-8.5948,-8.595,-8.5981,-8.6029,-8.6024,-8.5812,-8.5783,-8.5755,-8.5723,-8.6036,-8.6036,-8.6242,-8.6244,-8.6246]}]]